Weather in Bolshakovo

Russia / Kaliningrad Oblast     54°52′32″N   21°39′09″E
temp.,
°C
wind,
m/s
gust,
m/s
humid.,
%
clouds,
%
prec.,
mm/h
press.,
hPa
HPBL,
m
14 august, sun
sun1423:00+17ene35820 0.0 101963
02:00+16ene35910 0.0 101884
05:00+14e37910 0.0 1017122
08:00+21e47605 0.0 1017317
11:00+26e5747100 0.0 1016866
14:00+27e5751100 0.0 1015833
17:00+27ese585876 0.0 1014903
20:00+23e4106792 0.0 1013290
15 august, mon
mon1523:00+21e4128696 0.0 1013266
02:00+18ese4109363 0.7 1013203
05:00+16ese3891100 1.1 1012138
08:00+20ese4107916 1.1 1013296
11:00+27ese675281 0.0 1012926
14:00+29se674720 0.0 10111465
17:00+28ese7854100 0.0 10111130
20:00+22se51266100 0.0 1011396
16 august, tue
tue1623:00+21ese31080100 0.0 1011283
02:00+20e4779100 0.1 1012184
05:00+19e3784100 0.0 1011125
08:00+23ese58695 0.0 1011376
11:00+29se57475 0.0 1011966
14:00+31se56385 0.0 10111861
17:00+30se45386 0.0 10111452
20:00+23e396460 0.0 1011281
17 august, wed
wed1723:00+19e37842 0.0 1011131
02:00+18ese22944 0.0 101233
05:00+18ese229313 0.0 101226
08:00+23se22685 0.0 1012274
11:00+28sse335012 0.0 10131069
14:00+31se33385 0.0 10131907
17:00+30ese33395 0.0 10131690
20:00+23se01685 0.0 101411
18 august, thu
thu1823:00+20e118282 0.0 101411
02:00+19e228454 0.0 101411
05:00+18ene228726 0.0 101418
08:00+24e35615 0.0 1015306
11:00+29e45435 0.0 10141248
14:00+31ese55375 0.0 10141972
17:00+31ese563955 0.0 10131709
20:00+25e3864100 0.0 1013165